Location: New Frontier Mobile Home Park
(32.8448°N, 116.9675°W)
Time: 23:07:50
(UTC+00:00)

SeaSat 1 - Pass Details

Date: 14 July 2020
Orbit: 744 x 747 km, 108.0° (Epoch: 05 August)

Event Time Altitude Azimuth Distance (km) Brightness Sun altitude
Rises 10:36:34 0° 6° (N) 3,194 6.6 -23.1°
Reaches altitude 10° 10:39:22 10° 350° (N) 2,267 5.4 -22.8°
Maximum altitude 10:42:52 20° 305° (NW) 1,687 4.2 -22.3°
Enters shadow 10:43:39 19° 292° (WNW) 1,720 4.1 -22.2°
